DELTA 1 DEB, 10716

Orbit data source: Space-Track

DELTA 1 DEB, 10716 is space debris in SSO originally from a launch on Thu, 29 Jul 1976 UTC launched from the Air Force Western Test Range (AFWTR). Debris objects in space refer to the collection of defunct objects orbiting the Earth. Examples of debris include non-operational satellites, rocket bodies, and fragments generated from explosions, collisions, or faulty payload assembly.

Loading next visibility...
Identifier
10716, 1976-077AM
Orbit
SSO
Country
Flag of USUS
Related business
Manufacturer
Unknown
Mission
Spacecraft
Bus & Motor
Unknown
Mass
Unknown
Launch date (UTC)
1976-07-29 (49 years ago)
Launch vehicle
Unknown
Launch site
Air Force Western Test Range (AFWTR)
Object type
Payload
Rocket body
Debris
Shape & HBR
Unknown shape, 0.1 m
Radar Cross Section
Small (<0.1 m²)

Expand to show TLE details & history
Last TLE update: 16 hours ago

TLE from 16 hours ago
0 DELTA 1 DEB
1 10716U 76077AM  25307.95153898  .00003171  00000-0  13476-1 0  9991
2 10716 102.7475 116.6897 0122928 188.7504 325.8416 12.81318752247930
Epoch: 2025-11-03T22:50Z
TLE epoch observation values (Epoch: 2025-11-03T22:50:12.967Z)
Latitude
25.54887°
Longitude
-83.13296°
Altitude
1,260.854 km
Speed
7.264 km/s
True Right ascension
20h 11m 27s
True Declination
25° 25' 27"
Sunlit
Object was in daylight at epoch
Visualization orbit readout
Latitude
Unknown
Longitude
Unknown
Altitude
Unknown
Speed
Unknown
Apparent Right ascension
Unknown
Apparent Declination
Unknown
Sunlit
N/A
Visualization observer readout
Local Sidereal Time
10:20:32
Azimuth
Unknown
Elevation
Unknown
Doppler factor
Unknown
Orbital elements
Apogee altitude
1,428.54 km
Perigee altitude
1,238.939 km
Semi-major axis
7,711.877 km
Eccentricity
0.01229
Inclination
102.7475°
RAAN
116.6897°
Arg. of periapsis
188.7504°
True anomaly
325.04051°
Mean anomaly
325.8416°
Eccentric anomaly
325.44208°
Mean motion
3.20482 °/min
Orbital period
112.33 mins
BSTAR
0.013476
Loading maneuver chart data...
Computing Atmospheric mass density...
Loading historical data...
Loading historical data...
Loading historical data...
Loading historical data...
Loading historical data...
Loading historical data...
Loading historical data...

Documentation

Showing up to 5 results
|